Change the Weather History Date:

Monday, January 7, 2013

  Actual Average Record
Temperature  
Mean Temperature 30 °F -  
Max Temperature 34 °F 35 °F 66 °F (2008)
Min Temperature 27 °F 22 °F -9 °F (2014)
Degree Days  
Heating Degree Days 34    
Moisture  
Dew Point 24 °F    
Average Humidity 81    
Maximum Humidity 89    
Minimum Humidity 66    
Precipitation  
Precipitation 0.00 in - - ()
Sea Level Pressure  
Sea Level Pressure 30.38 in    
Wind  
Wind Speed 7 mph (SSW)    
Max Wind Speed 10 mph    
Max Gust Speed -    
Visibility 6 miles    
Events      
Averages and records for this station are not official NWS values.
T = Trace of Precipitation, MM = Missing Value Source: NWS Daily Summary

Daily Weather History Graph

Daily Weather History Graph

Search for Another Location

Airport or City:

Trip Planner

Search our weather history database for the weather conditions in past years. The results will help you decide how hot, cold, wet, or windy it might be!

Date:

Astronomy

Jan. 07, 2013 Rise Set
Actual Time 7:54 AM EST 5:23 PM EST
Civil Twilight 7:24 AM EST 5:53 PM EST
Nautical Twilight 6:50 AM EST 6:27 PM EST
Astronomical Twilight 6:17 AM EST 7:00 PM EST
Moon 3:16 AM EST (1/7) 1:33 PM EST (1/7)
Length of Visible Light 10h 29m
Length of Day
9h 28m
Waning Crescent, 23% of the Moon is Illuminated
Jan 7
Waning Crescent
Jan 11
New
Jan 18
First Quarter
Jan 26
Full
Feb 3
Last Quarter

Hourly Weather History & Observations

Time (EST) Temp. Windchill Dew Point Humidity Pressure Visibility Wind Dir Wind Speed Gust Speed Precip Events Conditions
12:53 AM 28.0 °F 18.6 °F 24.1 °F 85% 30.33 in 5.0 mi West 10.4 mph - N/A   Overcast
1:53 AM 28.0 °F 20.8 °F 25.0 °F 88% 30.35 in 5.0 mi WNW 6.9 mph - N/A   Overcast
2:20 AM 28.4 °F 20.4 °F 24.8 °F 86% 30.33 in 5.0 mi West 8.1 mph - N/A   Overcast
2:42 AM 28.4 °F 20.4 °F 24.8 °F 86% 30.33 in 5.0 mi West 8.1 mph - N/A   Overcast
2:53 AM 28.0 °F 22.8 °F 25.0 °F 88% 30.35 in 5.0 mi West 4.6 mph - N/A   Overcast
3:53 AM 28.0 °F 21.7 °F 25.0 °F 88% 30.38 in 5.0 mi West 5.8 mph - N/A   Overcast
4:53 AM 28.0 °F 21.7 °F 24.1 °F 85% 30.39 in 6.0 mi West 5.8 mph - N/A   Overcast
5:53 AM 28.0 °F - 24.1 °F 85% 30.40 in 6.0 mi Calm Calm - N/A   Overcast
6:53 AM 27.0 °F 21.6 °F 24.1 °F 89% 30.43 in 5.0 mi SW 4.6 mph - N/A   Overcast
7:53 AM 27.0 °F 20.5 °F 24.1 °F 89% 30.45 in 5.0 mi WSW 5.8 mph - N/A   Overcast
8:53 AM 28.0 °F - 24.1 °F 85% 30.48 in 4.0 mi Calm Calm - N/A   Overcast
9:53 AM 28.9 °F 23.9 °F 25.0 °F 85% 30.49 in 4.0 mi SSW 4.6 mph - N/A   Overcast
10:53 AM 30.9 °F 25.2 °F 25.0 °F 79% 30.49 in 4.0 mi SSE 5.8 mph - N/A   Haze
11:53 AM 32.0 °F 24.8 °F 24.1 °F 73% 30.46 in 7.0 mi SSW 8.1 mph - N/A   Clear
12:53 PM 33.1 °F 25.5 °F 23.0 °F 66% 30.42 in 8.0 mi SSW 9.2 mph - N/A   Clear
2:53 PM 34.0 °F 27.2 °F 24.1 °F 67% 30.38 in 8.0 mi South 8.1 mph - N/A   Clear
3:53 PM 33.1 °F 26.9 °F 25.0 °F 72% 30.38 in 9.0 mi South 6.9 mph - N/A   Clear
4:53 PM 33.1 °F 26.1 °F 25.0 °F 72% 30.37 in 9.0 mi South 8.1 mph - N/A   Clear
5:53 PM 32.0 °F 26.4 °F 25.0 °F 75% 30.35 in 8.0 mi SSE 5.8 mph - N/A   Clear
6:53 PM 30.9 °F 26.2 °F 25.0 °F 79% 30.33 in 8.0 mi SE 4.6 mph - N/A   Clear
7:53 PM 32.0 °F 26.4 °F 25.0 °F 75% 30.32 in 8.0 mi South 5.8 mph - N/A   Clear
8:53 PM 30.9 °F 24.3 °F 24.1 °F 76% 30.31 in 8.0 mi SSE 6.9 mph - N/A   Clear
9:53 PM 30.9 °F 23.5 °F 24.1 °F 76% 30.30 in 8.0 mi SSE 8.1 mph - N/A   Clear
10:53 PM 27.0 °F - 23.0 °F 85% 30.29 in 7.0 mi Calm Calm - N/A   Clear
11:53 PM 27.0 °F 20.5 °F 23.0 °F 85% 30.28 in 6.0 mi SSE 5.8 mph - N/A   Clear